EW1577 Weather Reports


Display with metric or nautical units.
time (UTC)temp
F
wind
direction
speed
MPH
gust
MPH
rain 1hr
in
rain 24hr
in
rain mn
in
humidity
%
barometer
mb
20170924211737 88 270 2.0 4.0 0.00 0.00 0.00 39 1017.9
20170924211230 87 68 3.0 4.0 0.00 0.00 0.00 37 1017.9
20170924210715 88 23 2.0 6.0 0.00 0.00 0.00 39 1017.9
20170924210206 88 113 3.0 6.0 0.00 0.00 0.00 37 1017.9
20170924205703 89 68 2.0 4.0 0.00 0.00 0.00 37 1017.9
20170924205106 88 0 2.0 5.0 0.00 0.00 0.00 37 1017.5
20170924204558 89 338 2.0 5.0 0.00 0.00 0.00 37 1017.5
20170924204056 88 90 3.0 4.0 0.00 0.00 0.00 37 1018.2
20170924203557 88 113 3.0 6.0 0.00 0.00 0.00 37 1018.2
20170924203048 88 68 3.0 6.0 0.00 0.00 0.00 35 1017.9
20170924202533 89 113 2.0 6.0 0.00 0.00 0.00 37 1017.9
20170924202020 88 338 3.0 6.0 0.00 0.00 0.00 35 1017.9
20170924201513 89 113 2.0 5.0 0.00 0.00 0.00 37 1018.2
20170924201014 89 113 3.0 5.0 0.00 0.00 0.00 37 1017.9
20170924200421 89 0 2.0 4.0 0.00 0.00 0.00 37 1018.2
20170924195908 89 180 1.0 5.0 0.00 0.00 0.00 35 1018.2
20170924195353 88 23 2.0 5.0 0.00 0.00 0.00 37 1018.2
20170924194844 88 45 2.0 4.0 0.00 0.00 0.00 37 1018.2
20170924194344 89 23 2.0 5.0 0.00 0.00 0.00 37 1018.5
20170924193843 89 90 3.0 5.0 0.00 0.00 0.00 35 1018.5
20170924193334 89 68 2.0 7.0 0.00 0.00 0.00 37 1019.0
20170924192822 88 90 3.0 9.0 0.00 0.00 0.00 37 1018.5
20170924192326 89 23 3.0 9.0 0.00 0.00 0.00 37 1018.5
20170924191821 88 90 2.0 4.0 0.00 0.00 0.00 37 1018.5
20170924191311 88 45 2.0 4.0 0.00 0.00 0.00 37 1018.5
20170924190759 88 248 2.0 4.0 0.00 0.00 0.00 37 1019.0
20170924190249 89 68 2.0 4.0 0.00 0.00 0.00 37 1019.0
20170924185747 88 0 3.0 6.0 0.00 0.00 0.00 37 1019.0
20170924185246 88 180 3.0 8.0 0.00 0.00 0.00 37 1019.0
20170924184736 88 270 3.0 8.0 0.00 0.00 0.00 37 1019.0
20170924184224 88 0 3.0 8.0 0.00 0.00 0.00 37 1019.0
20170924183716 88 68 3.0 8.0 0.00 0.00 0.00 37 1019.0
20170924183214 87 90 2.0 8.0 0.00 0.00 0.00 39 1019.0
20170924182714 88 23 3.0 8.0 0.00 0.00 0.00 35 1019.3
20170924182206 88 90 3.0 5.0 0.00 0.00 0.00 37 1019.0
20170924181652 87 0 3.0 5.0 0.00 0.00 0.00 37 1019.3
20170924181153 88 113 2.0 5.0 0.00 0.00 0.00 37 1019.3
20170924180652 88 113 3.0 7.0 0.00 0.00 0.00 35 1019.3
20170924180142 87 90 4.0 7.0 0.00 0.00 0.00 37 1019.0
20170924175638 87 45 4.0 6.0 0.00 0.00 0.00 35 1019.7
20170924175122 89 90 2.0 4.0 0.00 0.00 0.00 37 1019.7
20170924174619 87 338 2.0 5.0 0.00 0.00 0.00 37 1019.7
20170924174118 86 90 2.0 5.0 0.00 0.00 0.00 39 1019.7
20170924173608 87 68 3.0 5.0 0.00 0.00 0.00 35 1020.0
20170924173057 87 293 3.0 5.0 0.00 0.00 0.00 37 1020.0
20170924172558 85 158 2.0 4.0 0.00 0.00 0.00 40 1020.0
20170924172055 83 270 2.0 4.0 0.00 0.00 0.00 41 1020.0
20170924171550 83 90 2.0 5.0 0.00 0.00 0.00 40 1020.0
20170924171035 84 158 2.0 5.0 0.00 0.00 0.00 40 1020.0
20170924170523 85 45 2.0 5.0 0.00 0.00 0.00 39 1020.0
20170924170014 85 158 3.0 4.0 0.00 0.00 0.00 39 1020.0
20170924165518 86 23 2.0 4.0 0.00 0.00 0.00 40 1020.0
20170924165025 86 338 3.0 6.0 0.00 0.00 0.00 37 1020.3
20170924164504 87 68 3.0 6.0 0.00 0.00 0.00 35 1020.0
20170924164004 86 90 2.0 5.0 0.00 0.00 0.00 37 1020.3
20170924163500 86 315 2.0 5.0 0.00 0.00 0.00 37 1020.3
20170924162439 85 68 4.0 6.0 0.00 0.00 0.00 37 1020.0
20170924161928 86 90 3.0 7.0 0.00 0.00 0.00 39 1020.3
20170924161432 86 135 3.0 7.0 0.00 0.00 0.00 37 1020.3
20170924160929 86 90 3.0 5.0 0.00 0.00 0.00 39 1020.7
20170924160416 85 113 3.0 5.0 0.00 0.00 0.00 39 1020.7
20170924155905 86 90 2.0 6.0 0.00 0.00 0.00 40 1020.3
20170924155353 85 113 3.0 6.0 0.00 0.00 0.00 39 1020.3
20170924154843 84 90 3.0 5.0 0.00 0.00 0.00 39 1020.3
20170924154342 85 90 2.0 4.0 0.00 0.00 0.00 39 1020.7
20170924153825 85 68 2.0 4.0 0.00 0.00 0.00 39 1020.3
20170924153313 84 180 3.0 4.0 0.00 0.00 0.00 39 1020.7
20170924152803 84 158 2.0 6.0 0.00 0.00 0.00 40 1020.7
20170924152307 83 45 2.0 6.0 0.00 0.00 0.00 40 1020.7
20170924151803 84 68 2.0 3.0 0.00 0.00 0.00 40 1020.3
20170924151252 82 68 2.0 3.0 0.00 0.00 0.00 43 1020.3
20170924150739 82 68 2.0 5.0 0.00 0.00 0.00 44 1020.7
20170924150242 82 113 3.0 5.0 0.00 0.00 0.00 43 1020.7
20170924145738 81 68 2.0 4.0 0.00 0.00 0.00 45 1020.7
20170924145228 82 68 2.0 5.0 0.00 0.00 0.00 45 1020.3
20170924144719 81 90 3.0 4.0 0.00 0.00 0.00 45 1020.3
20170924144204 80 68 2.0 3.0 0.00 0.00 0.00 49 1020.3
20170924143650 80 90 2.0 3.0 0.00 0.00 0.00 49 1020.7
20170924143148 80 113 2.0 3.0 0.00 0.00 0.00 49 1020.7
20170924142640 79 68 2.0 5.0 0.00 0.00 0.00 49 1020.7
20170924142133 80 45 2.0 5.0 0.00 0.00 0.00 48 1020.3
20170924141616 79 90 1.0 3.0 0.00 0.00 0.00 50 1020.7
20170924141116 79 90 2.0 5.0 0.00 0.00 0.00 50 1020.7
20170924140615 78 113 2.0 5.0 0.00 0.00 0.00 51 1020.7
20170924140114 79 90 1.0 3.0 0.00 0.00 0.00 50 1020.7
20170924135554 78 68 2.0 5.0 0.00 0.00 0.00 54 1020.7
20170924135024 77 113 2.0 5.0 0.00 0.00 0.00 53 1021.0
20170924134525 77 68 2.0 6.0 0.00 0.00 0.00 53 1020.7
20170924134026 77 90 3.0 6.0 0.00 0.00 0.00 54 1020.7
20170924133517 75 90 2.0 4.0 0.00 0.00 0.00 55 1020.7
20170924133008 76 23 2.0 4.0 0.00 0.00 0.00 54 1021.0
20170924132455 75 68 2.0 4.0 0.00 0.00 0.00 56 1020.7
20170924131951 75 135 2.0 3.0 0.00 0.00 0.00 55 1020.7
20170924131451 74 90 2.0 4.0 0.00 0.00 0.00 59 1020.7
20170924130940 73 90 2.0 4.0 0.00 0.00 0.00 60 1020.7
20170924130434 72 68 2.0 3.0 0.00 0.00 0.00 61 1020.7
20170924125931 72 203 1.0 2.0 0.00 0.00 0.00 61 1020.7
20170924125430 71 90 1.0 3.0 0.00 0.00 0.00 63 1020.3
20170924124920 71 90 1.0 3.0 0.00 0.00 0.00 61 1020.3
20170924124407 71 135 1.0 2.0 0.00 0.00 0.00 63 1020.7
20170924123859 70 90 1.0 2.0 0.00 0.00 0.00 65 1020.3
20170924123355 69 113 1.0 3.0 0.00 0.00 0.00 65 1020.3
20170924122858 68 68 1.0 3.0 0.00 0.00 0.00 66 1020.3
20170924122344 68 45 1.0 3.0 0.00 0.00 0.00 65 1020.0
20170924121835 68 68 1.0 3.0 0.00 0.00 0.00 65 1020.3
20170924121322 67 113 1.0 3.0 0.00 0.00 0.00 66 1020.3
20170924120824 67 113 1.0 3.0 0.00 0.00 0.00 68 1020.3
20170924120322 66 113 1.0 3.0 0.00 0.00 0.00 69 1020.3
20170924115816 66 90 1.0 3.0 0.00 0.00 0.00 70 1020.3
20170924115259 65 68 1.0 2.0 0.00 0.00 0.00 70 1020.3
20170924114801 65 45 1.0 2.0 0.00 0.00 0.00 71 1020.3
20170924114300 65 90 1.0 2.0 0.00 0.00 0.00 71 1020.3
20170924113748 65 113 0.0 2.0 0.00 0.00 0.00 71 1020.3
20170924113237 65 90 1.0 2.0 0.00 0.00 0.00 71 1020.3
20170924112708 65 68 0.0 2.0 0.00 0.00 0.00 71 1020.3
20170924112210 65 90 0.0 2.0 0.00 0.00 0.00 71 1020.0
20170924111708 65 23 0.0 1.0 0.00 0.00 0.00 71 1020.3
20170924111157 65 68 0.0 1.0 0.00 0.00 0.00 71 1020.3
20170924110630 65 90 1.0 2.0 0.00 0.00 0.00 70 1020.0
20170924110118 66 45 1.0 4.0 0.00 0.00 0.00 70 1020.0
20170924105609 66 45 1.0 4.0 0.00 0.00 0.00 69 1020.0
20170924105109 66 90 1.0 2.0 0.00 0.00 0.00 69 1020.0
20170924104610 66 68 1.0 2.0 0.00 0.00 0.00 70 1020.0
20170924104057 66 90 1.0 3.0 0.00 0.00 0.00 70 1020.0
20170924103544 67 90 1.0 3.0 0.00 0.00 0.00 69 1020.0
20170924103045 66 135 1.0 2.0 0.00 0.00 0.00 70 1020.0
20170924102544 67 90 1.0 2.0 0.00 0.00 0.00 70 1019.7
20170924102034 67 45 1.0 3.0 0.00 0.00 0.00 70 1020.0
20170924101522 67 113 2.0 3.0 0.00 0.00 0.00 70 1019.7
20170924101011 67 68 2.0 3.0 0.00 0.00 0.00 70 1020.0
20170924100510 67 23 2.0 4.0 0.00 0.00 0.00 70 1019.7
20170924100013 66 68 2.0 4.0 0.00 0.00 0.00 73 1019.7
20170924095501 66 23 1.0 3.0 0.00 0.00 0.00 73 1019.7
20170924094948 66 0 1.0 3.0 0.00 0.00 0.00 73 1019.7
20170924094449 66 90 2.0 4.0 0.00 0.00 0.00 73 1020.0
20170924093952 65 45 2.0 4.0 0.00 0.00 0.00 74 1019.7
20170924093437 65 45 1.0 3.0 0.00 0.00 0.00 75 1020.0
20170924092932 65 68 0.0 3.0 0.00 0.00 0.00 75 1020.0
20170924092419 65 68 1.0 3.0 0.00 0.00 0.00 75 1020.0
20170924091915 65 293 1.0 4.0 0.00 0.00 0.00 75 1019.7
20170924091414 65 68 1.0 4.0 0.00 0.00 0.00 75 1019.7
20170924090903 64 23 1.0 3.0 0.00 0.00 0.00 76 1019.7
20170924090353 64 90 0.0 3.0 0.00 0.00 0.00 78 1019.7
20170924085858 64 315 1.0 3.0 0.00 0.00 0.00 78 1019.7
20170924085353 64 90 0.0 3.0 0.00 0.00 0.00 78 1019.7
20170924084840 64 68 0.0 1.0 0.00 0.00 0.00 78 1019.7
20170924084339 64 23 0.0 2.0 0.00 0.00 0.00 78 1019.7
20170924083818 64 23 0.0 3.0 0.00 0.00 0.00 76 1019.7
20170924083305 64 23 1.0 3.0 0.00 0.00 0.00 78 1019.7
20170924082803 63 23 0.0 2.0 0.00 0.00 0.00 80 1019.7
20170924082255 63 0 0.0 1.0 0.00 0.00 0.00 80 1019.7
20170924081741 64 68 0.0 1.0 0.00 0.00 0.00 79 1019.7
20170924081232 64 23 0.0 0.0 0.00 0.00 0.00 79 1019.7
20170924080728 64 90 0.0 0.0 0.00 0.00 0.00 79 1019.7
20170924080227 64 68 0.0 1.0 0.00 0.00 0.00 79 1019.7
20170924075720 64 68 0.0 1.0 0.00 0.00 0.00 78 1019.7
20170924075213 65 90 0.0 1.0 0.00 0.00 0.00 78 1019.7
20170924074656 65 23 0.0 2.0 0.00 0.00 0.00 76 1019.3
20170924074153 65 68 0.0 2.0 0.00 0.00 0.00 76 1019.7
20170924073654 65 90 0.0 1.0 0.00 0.00 0.00 75 1019.3
20170924073143 66 68 0.0 1.0 0.00 0.00 0.00 75 1019.3
20170924072632 66 90 0.0 4.0 0.00 0.00 0.00 75 1019.3
20170924072132 66 23 1.0 4.0 0.00 0.00 0.00 75 1019.3
20170924071633 66 23 1.0 2.0 0.00 0.00 0.00 75 1019.3
20170924071121 66 0 0.0 3.0 0.00 0.00 0.00 75 1019.3
20170924070613 66 23 1.0 3.0 0.00 0.00 0.00 75 1019.3
20170924070054 66 90 1.0 4.0 0.00 0.00 0.00 75 1019.7
20170924065512 66 23 1.0 4.0 0.00 0.00 0.00 75 1019.3
20170924065014 65 68 0.0 1.0 0.00 0.00 0.00 76 1019.7
20170924064514 65 23 0.0 2.0 0.00 0.00 0.00 76 1019.3
20170924064002 65 23 0.0 2.0 0.00 0.00 0.00 76 1019.0
20170924063449 65 23 0.0 2.0 0.00 0.00 0.00 76 1019.3
20170924062937 65 0 0.0 1.0 0.00 0.00 0.00 78 1019.3
20170924062431 65 23 0.0 2.0 0.00 0.00 0.00 78 1019.7
20170924061927 65 45 1.0 3.0 0.00 0.00 0.00 78 1019.3
20170924061352 65 90 1.0 3.0 0.00 0.00 0.00 78 1019.7
20170924060842 65 68 1.0 3.0 0.00 0.00 0.00 79 1019.3
20170924060330 65 45 1.0 3.0 0.00 0.00 0.00 79 1019.3
20170924055832 65 68 0.0 2.0 0.00 0.00 0.00 81 1019.3
20170924055330 65 45 0.0 2.0 0.00 0.00 0.00 81 1019.3
20170924054819 65 68 0.0 2.0 0.00 0.00 0.00 81 1019.3
20170924054306 65 68 0.0 1.0 0.00 0.00 0.00 81 1019.3
20170924053759 65 90 0.0 2.0 0.00 0.00 0.00 81 1019.0
20170924053256 65 23 0.0 3.0 0.00 0.00 0.00 81 1019.3
20170924052756 65 45 1.0 3.0 0.00 0.00 0.00 81 1019.3
20170924052245 65 90 0.0 1.0 0.00 0.00 0.00 81 1019.3
20170924051733 65 45 0.0 1.0 0.00 0.00 0.00 81 1019.0
20170924051235 65 68 0.0 1.0 0.00 0.00 0.00 81 1019.3
20170924050735 65 45 0.0 1.0 0.00 0.00 0.00 80 1019.3
20170924050223 65 45 0.0 1.0 0.00 0.00 0.00 81 1019.0
20170924045713 65 45 0.0 1.0 0.00 0.00 0.00 81 1019.0
20170924045142 65 45 0.0 1.0 0.00 0.00 0.00 81 1019.3
20170924044644 65 68 0.0 1.0 0.00 0.00 0.00 80 1019.0
20170924044146 65 23 0.0 1.0 0.00 0.00 0.00 80 1019.0
20170924043637 65 23 0.0 1.0 0.00 0.00 0.00 80 1019.3
20170924043119 65 45 0.0 0.0 0.00 0.00 0.00 80 1019.0
20170924042610 65 90 0.0 0.0 0.00 0.00 0.00 80 1019.3
20170924042111 65 45 0.0 2.0 0.00 0.00 0.00 79 1019.0
20170924041609 65 23 0.0 2.0 0.00 0.00 0.00 79 1019.3
20170924041101 65 68 0.0 0.0 0.00 0.00 0.00 81 1019.0
20170924040549 65 45 0.0 0.0 0.00 0.00 0.00 81 1019.3
20170924040103 65 68 0.0 0.0 0.00 0.00 0.00 80 1019.3
20170924035547 65 45 0.0 0.0 0.00 0.00 0.00 80 1019.3
20170924035041 66 68 0.0 1.0 0.00 0.00 0.00 79 1019.3
20170924034526 66 45 0.0 1.0 0.00 0.00 0.00 76 1019.0
20170924034017 66 45 0.0 0.0 0.00 0.00 0.00 78 1019.0
20170924033516 66 90 0.0 0.0 0.00 0.00 0.00 76 1019.0
20170924033020 66 90 0.0 0.0 0.00 0.00 0.00 76 1019.3
20170924032505 66 23 0.0 0.0 0.00 0.00 0.00 76 1019.3
20170924031950 67 0 0.0 0.0 0.00 0.00 0.00 76 1019.0
20170924031441 67 90 0.0 0.0 0.00 0.00 0.00 75 1019.0
20170924030940 67 45 0.0 0.0 0.00 0.00 0.00 75 1019.0
20170924030440 67 23 0.0 0.0 0.00 0.00 0.00 75 1019.0
20170924025931 67 45 0.0 1.0 0.00 0.00 0.00 74 1019.0
20170924025418 67 68 0.0 0.0 0.00 0.00 0.00 73 1019.3
20170924024919 68 45 0.0 0.0 0.00 0.00 0.00 73 1019.0
20170924024419 67 45 0.0 0.0 0.00 0.00 0.00 74 1019.0
20170924023907 68 135 0.0 0.0 0.00 0.00 0.00 75 1019.0
20170924023355 68 113 0.0 1.0 0.00 0.00 0.00 75 1019.0
20170924022846 68 90 0.0 1.0 0.00 0.00 0.00 74 1019.0
20170924022345 68 68 0.0 1.0 0.00 0.00 0.00 75 1019.0
20170924021844 68 180 0.0 0.0 0.00 0.00 0.00 75 1019.0
20170924021316 68 113 0.0 0.0 0.00 0.00 0.00 75 1019.0
20170924020805 68 23 0.0 0.0 0.00 0.00 0.00 75 1019.0
20170924020256 68 23 0.0 0.0 0.00 0.00 0.00 74 1019.3
20170924015755 68 113 0.0 0.0 0.00 0.00 0.00 74 1019.0
20170924015253 69 45 0.0 0.0 0.00 0.00 0.00 74 1019.0
20170924014744 69 90 0.0 0.0 0.00 0.00 0.00 75 1019.3
20170924014230 69 68 0.0 0.0 0.00 0.00 0.00 75 1019.0
20170924013728 69 90 0.0 0.0 0.00 0.00 0.00 75 1019.0
20170924013147 69 225 0.0 0.0 0.00 0.00 0.00 75 1019.0
20170924012645 70 90 0.0 0.0 0.00 0.00 0.00 74 1018.5
20170924012135 70 90 0.0 0.0 0.00 0.00 0.00 71 1019.0
20170924011623 70 68 0.0 0.0 0.00 0.00 0.00 70 1019.0
20170924011112 70 90 0.0 0.0 0.00 0.00 0.00 71 1019.0
20170924010615 71 68 0.0 1.0 0.00 0.00 0.00 70 1019.3
20170924010118 71 90 0.0 1.0 0.00 0.00 0.00 70 1019.0
20170924005602 71 135 0.0 0.0 0.00 0.00 0.00 70 1019.3
20170924005053 72 68 0.0 0.0 0.00 0.00 0.00 70 1019.0
20170924004552 72 68 0.0 0.0 0.00 0.00 0.00 69 1019.0
20170924004052 73 68 0.0 0.0 0.00 0.00 0.00 66 1019.0
20170924003544 73 68 0.0 0.0 0.00 0.00 0.00 65 1019.0
20170924003009 74 68 0.0 0.0 0.00 0.00 0.00 65 1019.3
20170924002457 74 45 0.0 0.0 0.00 0.00 0.00 63 1019.3
20170924001944 74 90 0.0 1.0 0.00 0.00 0.00 61 1019.0
20170924001437 75 90 0.0 1.0 0.00 0.00 0.00 61 1019.0
20170924000932 76 45 0.0 1.0 0.00 0.00 0.00 60 1019.0
20170924000430 76 45 0.0 1.0 0.00 0.00 0.00 59 1018.5
20170923235924 76 68 0.0 0.0 0.00 0.00 0.00 58 1019.0
20170923235426 77 68 0.0 0.0 0.00 0.00 0.00 56 1019.0
20170923234923 78 90 0.0 0.0 0.00 0.00 0.00 55 1018.5
20170923234417 79 158 0.0 0.0 0.00 0.00 0.00 54 1018.5
20170923233906 80 113 0.0 0.0 0.00 0.00 0.00 53 1019.0
20170923233334 81 113 0.0 0.0 0.00 0.00 0.00 50 1018.5
20170923232818 82 90 0.0 0.0 0.00 0.00 0.00 49 1018.5
20170923232317 83 68 0.0 1.0 0.00 0.00 0.00 48 1018.5
20170923231748 83 135 0.0 1.0 0.00 0.00 0.00 45 1018.5
20170923231235 84 113 0.0 1.0 0.00 0.00 0.00 45 1018.5
20170923230727 85 113 0.0 1.0 0.00 0.00 0.00 44 1019.0
20170923230212 85 135 0.0 1.0 0.00 0.00 0.00 43 1018.5
20170923225701 84 113 0.0 3.0 0.00 0.00 0.00 45 1018.5
20170923225155 84 90 1.0 3.0 0.00 0.00 0.00 45 1019.0
20170923224644 85 90 0.0 2.0 0.00 0.00 0.00 45 1018.5
20170923224139 85 113 1.0 2.0 0.00 0.00 0.00 43 1018.5
20170923223623 86 45 1.0 3.0 0.00 0.00 0.00 41 1018.5
20170923223107 86 45 2.0 5.0 0.00 0.00 0.00 40 1018.5
20170923222606 86 158 2.0 5.0 0.00 0.00 0.00 40 1019.0
20170923222055 87 45 2.0 5.0 0.00 0.00 0.00 39 1018.5
20170923221542 87 180 1.0 3.0 0.00 0.00 0.00 40 1018.5
20170923221032 87 135 2.0 4.0 0.00 0.00 0.00 40 1018.5
20170923220534 87 90 2.0 4.0 0.00 0.00 0.00 39 1018.5
20170923220044 88 68 2.0 4.0 0.00 0.00 0.00 39 1018.5
20170923215519 88 338 2.0 4.0 0.00 0.00 0.00 39 1019.0
20170923215013 88 45 3.0 5.0 0.00 0.00 0.00 37 1018.5
20170923214459 88 45 2.0 4.0 0.00 0.00 0.00 37 1018.2
20170923213959 89 23 2.0 4.0 0.00 0.00 0.00 37 1018.2
20170923213444 88 113 2.0 5.0 0.00 0.00 0.00 37 1018.5
20170923212932 89 90 3.0 5.0 0.00 0.00 0.00 37 1018.2
20170923212429 89 113 3.0 5.0 0.00 0.00 0.00 35 1018.5